Hourly Data Report for June 27, 2017

FISHER BRANCH (AUT)
MANITOBA

51°05'00.100" N
97°33'16.200" W
253.00 m
50309J6
71442
WSZ

Download Data

Hourly Data (June 2017)
Hourly Data Report for June 27, 2017
TIME
LST
Temp Definition
°C
Dew Point Definition
°C
Rel Hum Definition
%
Precip. Amount Definition
mm

Wind Dir Definition
10's deg

Wind Spd Definition
km/h
Visibility Definition
km
Stn Press Definition
kPa
Hmdx Definition


Wind Chill Definition


Weather Definition


00:00 12.7 7.4 70 0.0 18 12   98.27     LegendNANA
01:00 11.6 7.7 77 0.0 18 9   98.21     LegendNANA
02:00 11.8 7.5 75 0.0 19 10   98.15     LegendNANA
03:00 10.8 6.7 76 0.0 17 8   98.11     LegendNANA
04:00 9.8 6.1 78 0.0 16 8   98.05     LegendNANA
05:00 11.1 6.3 72 0.0 16 12   97.96     LegendNANA
06:00 13.1 7.1 67 0.0 16 12   97.91     LegendNANA
07:00 15.5 8.1 61 0.0 16 13   97.86     LegendNANA
08:00 17.5 7.3 51 0.0 19 16   97.80     LegendNANA
09:00 18.0 8.0 52 0.0 18 17   97.71     LegendNANA
10:00 20.3 8.0 45 0.0 20 16   97.67     LegendNANA
11:00 22.1 8.3 41 0.0 18 16   97.60     LegendNANA
12:00 24.0 9.0 38 0.0 18 19   97.53 25   LegendNANA
13:00 26.2 10.8 38 0.0 17 18   97.47 28   LegendNANA
14:00 25.8 8.3 33 0.0 16 22   97.45 26   LegendNANA
15:00 25.0 10.1 39 0.0 14 18   97.39 26   LegendNANA
16:00 26.3 8.1 32 0.0 17 23   97.35 27   LegendNANA
17:00 25.4 8.7 35 0.0 17 20   97.31 26   LegendNANA
18:00 24.1 9.3 39 0.0 16 21   97.28 25   LegendNANA
19:00 22.8 10.0 44 0.0 14 23   97.24     LegendNANA
20:00 21.9 10.3 48 0.0 14 21   97.22     LegendNANA
21:00 21.0 10.7 52 0.0 14 19   97.26     LegendNANA
22:00 20.6 10.2 51 0.0 15 17   97.26     LegendNANA
23:00 19.6 9.5 52 0.0 14 17   97.22     LegendNANA

Notes on Data Quality.

Legend

  • E = Estimated
  • M = Missing
  • NA = Not Available*
  • [empty] = Indicates an unobserved value
Date modified: